Lid_Strength_Index
7 7 7 7 7 7 7 7 7 7 7 7 7 7 7 7 6 7 7 6 9 10 10 9 9 9 8 8 10 8 9 7 7 9 9 8 9 8 8 7 8 9 10 9 9 10 11 4 5 7 5 4 4 4
7 7 8 8 8 8 8 8 7 7 7 7 7 7 7 7 6 6 9 7 7 10 10 8 8 7 8 8 9 9 9 8 6 8 7 8 9 7 8 10 5 9 7 8 7 8 4 4 4 4 3 4 4 4
8 8 8 8 8 8 8 8 7 7 7 7 7 7 7 6 6 6 8 8 9 10 10 8 8 6 5 6 6 11 8 7 8 5 6 7 10 7 10 9 7 6 4 7 6 5 5 4 3 3 3 4 3 3
8 8 8 8 9 8 8 7 7 7 7 6 6 6 6 6 6 6 8 7 8 11 13 10 6 6 4 4 5 5 6 6 6 6 7 7 9 6 8 8 8 6 6 6 6 5 5 4 3 3 3 3 3 3
9 9 9 9 9 8 8 7 7 7 6 6 6 6 6 6 5 5 6 6 6 9 12 10 6 4 4 4 4 3 4 5 6 8 9 8 6 6 6 7 8 5 6 7 7 4 5 4 3 3 4 4 3 3
9 9 9 9 9 8 7 7 7 6 6 6 6 6 6 5 5 6 8 4 5 5 9 10 4 4 2 1 2 3 3 4 5 6 7 7 5 6 9 9 6 4 4 3 4 3 4 3 3 3 3 3 3 3
9 9 9 9 8 8 7 7 6 6 6 5 5 5 5 4 4 7 8 5 3 2 6 9 7 3 2 2 2 3 2 3 4 5 6 6 5 5 7 10 6 5 4 4 3 3 5 4 4 3 3 3 3 2
9 9 8 8 8 7 7 6 6 6 5 4 4 4 4 4 4 5 3 3 2 4 5 9 8 5 2 4 6 3 5 4 5 5 5 6 5 5 9 6 5 5 4 4 3 3 3 3 3 3 3 3 3 3
9 8 8 8 7 7 6 6 6 5 4 4 3 3 3 4 5 4 2 1 2 4 8 8 10 9 3 5 4 4 4 8 4 7 6 5 6 8 8 5 5 4 4 4 3 3 3 4 4 3 3 3 3 3
8 8 8 7 7 6 6 5 5 4 3 3 4 5 5 4 2 1 2 4 5 5 6 9 6 9 6 7 9 7 6 8 10 7 5 8 8 5 4 4 4 3 3 3 4 5 4 4 4 4 3 3 3 3
8 8 7 7 6 6 5 4 3 3 4 4 5 6 3 2 2 3 6 7 7 9 7 7 6 9 5 9 11 7 9 8 11 8 9 9 9 6 3 4 3 3 3 3 3 3 3 3 3 3 3 3 3 2
7 7 7 6 6 5 4 3 3 4 4 5 5 4 4 5 5 8 8 7 8 10 7 7 6 6 6 5 8 8 10 9 12 7 10 10 8 6 5 5 4 3 3 3 3 3 3 3 3 3 3 3 2 2
7 7 6 6 4 3 3 3 3 3 3 3 6 7 6 5 11 11 13 10 9 5 5 5 8 6 6 6 8 9 11 12 8 12 12 11 8 8 7 6 5 4 3 3 3 3 2 3 2 3 3 2 2 2
6 6 5 3 3 3 3 3 3 3 4 6 8 12 8 9 8 8 8 7 5 5 5 5 7 8 7 9 9 12 9 10 13 15 14 10 10 9 8 7 6 5 4 3 3 3 3 3 3 2 2 3 2 3
6 4 3 3 3 3 3 2 3 2 4 7 7 11 8 5 4 5 4 4 4 4 5 6 7 8 9 10 9 10 12 14 13 14 15 10 9 10 8 7 8 5 4 4 3 3 3 2 3 3 2 2 2 2
3 3 3 3 3 3 2 3 2 2 4 7 7 7 5 6 6 5 5 5 3 4 4 5 9 10 11 10 12 13 13 14 12 12 10 9 9 8 7 7 8 6 4 4 3 3 3 3 2 2 2 2 2 2
3 3 4 3 3 2 3 3 3 6 7 8 7 5 5 5 6 5 4 4 3 5 7 7 11 11 8 11 12 8 11 9 8 8 7 8 8 8 7 7 6 6 4 4 3 3 3 2 2 2 3 3 2 2
3 3 3 2 2 3 2 3 4 6 8 7 7 5 4 4 5 4 4 3 4 5 5 8 6 10 11 12 10 7 6 6 5 6 7 8 7 7 6 7 6 5 4 3 3 3 3 3 3 3 2 2 2 2
2 2 2 2 2 3 5 4 4 8 7 5 5 5 5 4 3 3 3 3 3 3 4 6 8 10 9 6 6 5 5 6 7 7 7 7 6 6 6 6 6 5 4 3 3 3 3 2 2 2 2 2 3 2
2 2 2 2 2 3 6 5 3 6 7 5 4 5 4 4 4 4 3 3 4 5 6 7 7 6 6 4 4 4 4 4 5 7 7 7 6 6 7 6 6 5 4 3 3 6 2 2 2 2 2 2 2 2
2 2 2 1 2 3 4 6 6 5 5 5 4 4 5 4 5 6 5 2 5 6 6 5 4 4 3 3 3 3 3 4 5 5 6 7 6 7 6 5 6 5 5 4 3 3 4 3 2 2 2 2 2 2
2 2 1 2 4 4 5 3 5 4 5 5 5 4 6 6 6 5 4 5 5 4 3 4 4 4 3 3 3 3 3 2 3 3 7 7 7 7 6 6 6 6 5 4 3 3 3 2 2 2 2 2 3 2
2 2 2 3 6 7 7 3 7 6 7 6 5 7 7 6 5 4 7 5 4 2 3 3 3 2 3 2 2 2 2 3 4 4 4 5 4 5 5 5 5 5 6 4 3 2 3 6 3 2 2 2 2 2
3 3 6 6 7 8 4 6 5 5 6 7 7 9 8 7 5 7 9 7 6 4 4 3 3 3 3 3 3 4 3 3 3 3 3 4 6 4 4 5 5 5 5 4 3 3 3 2 4 2 2 2 2 2
7 8 7 11 5 8 8 7 7 7 9 7 8 9 8 6 9 10 10 8 6 5 4 4 3 3 4 4 3 3 2 3 4 4 3 4 5 3 4 5 5 5 4 5 5 4 3 2 2 2 2 2 2 2
11 7 9 7 6 7 6 9 8 8 7 8 8 7 7 8 10 11 9 6 6 5 4 4 4 4 4 3 4 4 4 2 3 5 3 3 4 4 5 6 6 6 4 4 5 5 5 4 4 3 3 5 8 4
10 8 5 4 4 4 6 5 5 6 9 9 7 9 9 11 11 8 5 3 4 3 2 2 3 4 4 3 3 2 2 2 2 3 1 2 3 3 4 6 7 6 4 3 4 4 5 5 5 5 5 4 4 5
6 5 7 5 5 4 7 7 8 8 7 5 6 9 9 8 8 4 3 2 2 2 2 1 1 2 2 2 2 2 2 2 2 1 1 1 2 2 2 3 3 10 3 3 3 3 4 4 5 5 6 6 5 5
6 4 5 6 6 6 7 7 6 4 3 4 7 7 6 3 3 3 2 2 1 2 2 2 2 0 1 2 1 2 2 2 4 5 5 5 4 3 3 2 2 3 3 5 12 6 2 2 3 3 4 4 5 5
6 4 5 6 7 7 5 4 4 2 2 3 3 4 4 3 1 0 1 1 2 3 2 2 2 2 3 3 3 3 2 1 2 3 4 5 4 2 2 3 3 3 3 3 4 5 10 6 6 3 4 4 4 5
3 4 6 5 6 4 3 2 2 2 3 3 3 4 4 3 1 0 1 1 1 1 2 2 2 2 2 2 3 3 3 2 1 1 2 2 2 2 3 3 3 3 3 2 2 2 3 4 4 4 4 4 4 5
4 5 6 7 6 3 2 4 4 4 4 4 4 4 4 4 5 3 1 1 2 2 3 2 2 2 1 1 1 1 5 2 2 2 2 2 3 2 3 3 2 3 3 3 3 3 3 3 3 3 2 3 4 4
5 4 5 5 5 6 4 4 5 6 5 5 5 4 4 5 6 3 1 -0 1 2 2 1 1 1 1 0 0 1 3 3 6 9 9 9 9 6 3 2 2 2 3 3 2 2 2 2 2 2 3 3 3 3